[[{"header":{"parameterUnit":"m.s-1","parameterCategory":1,"la1":30.2991,"la2":30.254,"lo1":-89.0895,"lo2":-89.0444,"dy":0.0017,"dx":0.0017,"nx":28,"ny":28,"refTime":"2023-08-25T09:00:00:Z","depth":0,"parameterNumber":2,"parameterNumberName":"U-component_of_WINDS"},"data":[0,0,0,0,0,0,0,0,0,0,0,0,0,0,0,0,0,0,0,0,0,0,0,0,0,0,0,0,0,0,0,0,0,0,0,0,0,0,0,0,0,0,0,0,0,0,0,0,0,0,0,0,0,0,0,0,0,0,4.0726,4.0727,0,4.0826,4.0828,4.0829,4.0748,4.0744,4.0741,4.0738,4.0843,4.0848,4.0854,0,0,0,0,0,0,0,0,0,0,0,0,0,4.0466,4.0471,4.0726,4.0727,4.0728,4.0826,4.0828,4.0829,4.0748,4.0744,4.074,4.0736,4.0841,4.0848,4.0855,0,0,0,0,0,0,0,0,0,0,0,0,0,4.0574,4.0473,4.0725,4.07,4.0698,4.0826,4.0828,4.0829,4.0749,4.0744,4.0739,4.0734,4.0838,4.0847,4.0856,4.1015,0,0,4.0883,4.0887,0,0,0,0,0,0,0,0,4.0568,4.0584,4.0702,4.0702,4.07,4.0769,4.0774,4.0892,4.0751,4.073,4.0738,4.0732,4.0822,4.0832,4.0863,4.1019,4.1024,4.0884,4.089,4.0893,4.0896,0,0,0,0,0,0,0,4.0561,4.0579,4.0765,4.0704,4.0703,4.0684,4.0694,4.0796,4.0804,4.0731,4.0726,4.0739,4.0821,4.0854,4.0865,4.1025,4.0884,4.0892,4.0897,4.0901,4.1319,4.1325,0,0,0,0,0,0,4.0555,4.0573,4.0762,4.0768,4.062,4.0693,4.0704,4.0752,4.0803,4.0805,4.0743,4.0735,4.0841,4.0854,4.0868,4.1058,4.0893,4.0902,4.0907,4.1314,4.1321,4.1327,0,0,0,0,0,0,4.055,4.0573,4.0758,4.0669,4.0691,4.0703,4.0758,4.0757,4.079,4.0811,4.0813,4.0776,4.0838,4.0855,4.0979,4.1061,4.0906,4.0914,4.1307,4.1316,4.1324,4.144,0,0,0,0,0,0,4.0543,4.0572,4.0631,4.0671,4.0697,4.0867,4.0763,4.0763,4.0806,4.0796,4.0842,4.0845,4.0835,4.0966,4.0988,4.107,4.0921,4.13,4.1311,4.1321,4.1429,4.1451,4.1471,0,0,0,0,0,4.0534,4.066,4.0635,4.0658,4.0771,4.0872,4.0887,4.0872,4.0813,4.0873,4.0887,4.0843,4.1048,4.0979,4.1003,4.109,4.1294,4.1308,4.132,4.1419,4.1447,4.147,0,0,0,0,0,0,4.063,4.0665,4.0637,4.078,4.0824,4.0858,4.0934,4.0902,4.0964,4.0952,4.0932,4.0943,4.1074,4.1094,4.1017,4.1247,4.1162,4.118,4.1229,4.1255,4.1276,4.1269,4.0929,0,0,0,0,0,4.0667,4.0745,4.0772,4.0895,4.0919,4.0923,4.0966,4.0952,4.0996,4.1015,4.1037,4.1083,4.1158,4.1207,4.1277,4.1431,4.1441,4.1502,4.1523,4.154,4.1557,4.1641,4.1669,4.1369,4.1369,4.1369,0,0,4.0746,4.0775,4.0825,4.0915,4.0947,4.103,4.0939,4.103,4.1091,4.1028,4.1147,4.1166,4.1215,4.1355,4.1418,4.1376,4.1642,4.1557,4.157,4.1577,4.1657,4.1686,4.1711,4.1378,4.1376,4.1375,0,0,4.0931,4.0961,4.1067,4.1102,4.1151,4.1154,4.1179,4.122,4.123,4.1348,4.1303,4.1376,4.1505,4.1543,4.1579,4.178,4.1743,4.1804,4.1913,4.1996,4.202,4.2041,4.2114,4.214,4.182,4.182,4.182,0,4.1023,4.1145,4.1126,4.1221,4.1262,4.1209,4.1318,4.1352,4.1423,4.1453,4.1405,4.1567,4.1596,4.1745,4.1795,4.1825,4.1855,4.1799,4.2018,4.2038,4.2058,4.2128,4.2155,4.1827,4.1826,4.1826,4.1825,0,4.1256,4.1341,4.1421,4.1491,4.1541,4.1643,4.164,4.1694,4.1675,4.1683,4.1805,4.1839,4.1915,4.1949,4.1932,4.2097,4.2069,4.202,4.1934,4.2094,4.2159,4.2186,4.1837,4.1835,4.1833,4.1831,0,0,4.1505,4.1563,4.1593,4.1625,4.1676,4.1742,4.1842,4.1916,4.1963,4.2014,4.2098,4.2208,4.2163,4.2205,4.2191,4.2263,4.2423,4.2205,4.2206,4.2246,4.2608,4.2646,4.2677,4.2398,4.2403,4.2407,4.2605,0,4.1694,4.1866,4.1853,4.2016,4.2096,4.2047,4.2134,4.2175,4.2186,4.2255,4.2266,4.2346,4.2279,4.2304,4.2374,4.2389,4.2496,4.2374,4.2477,4.2481,4.2467,4.2711,4.2751,4.2936,4.263,4.2634,4.2637,0,4.1938,4.1997,4.2168,4.2209,4.2242,4.232,4.2388,4.2455,4.2502,4.2504,4.2551,4.2525,4.2627,4.2538,4.2679,4.2596,4.2638,4.2652,4.2659,4.2668,4.257,4.2729,4.2994,4.3023,4.2677,4.2674,4.2671,0,4.2104,4.2227,4.2345,4.2374,4.2424,4.248,4.2504,4.2545,4.2592,4.2651,4.2681,4.2752,4.2791,4.2847,4.2842,4.2778,4.2986,4.2896,4.2992,4.2992,4.3038,4.3036,4.3315,4.3063,4.3063,4.3062,4.3062,0,4.2318,4.2425,4.2421,4.2494,4.2613,4.2597,4.2716,4.2733,4.2771,4.2847,4.2809,4.2882,4.287,4.2943,4.294,4.3058,4.3075,4.3081,4.3079,4.3085,4.3085,4.3113,4.3101,4.307,4.3068,4.3067,4.3065,0,4.2524,4.2526,4.2652,4.2689,4.2701,4.2788,4.282,4.289,4.2896,4.2994,4.3016,4.3027,4.3112,4.3112,4.3208,4.3206,4.3351,4.3334,4.3335,4.3332,4.3428,4.342,4.3737,4.3778,4.3498,4.3501,4.3503,0,4.2661,4.2742,4.2788,4.2837,4.2864,4.2942,4.2989,4.2977,4.3027,4.3087,4.3151,4.3231,4.3295,4.3433,4.345,4.3524,4.3509,4.3615,4.352,4.3524,4.3513,4.3509,4.3517,4.3634,4.3637,4.364,4.3642,0,4.2904,4.2901,4.297,4.304,4.3097,4.3151,4.3201,4.3243,4.3237,4.3296,4.3381,4.3431,4.353,4.3611,4.3683,4.3708,4.3675,4.3672,4.3698,4.3706,4.3704,4.3708,4.3387,4.3665,4.3663,4.3661,4.366,4.3659,4.3081,4.3152,4.3195,4.3274,4.331,4.3358,4.3426,4.3441,4.3512,4.3591,4.358,4.3676,4.3722,4.3815,4.3846,4.3922,4.3885,4.3923,4.3933,4.3942,4.3954,4.3691,4.3935,4.3934,4.3933,4.3933,4.3932,0,4.3324,4.335,4.3422,4.3493,4.3555,4.3518,4.3571,4.3626,4.3711,4.3756,4.382,4.3919,4.3998,4.4022,4.4099,4.4155,4.4142,4.4176,4.4172,4.4179,4.3981,4.3952,4.4185,4.4185,4.4185,4.4185,4.4185,4.4185,4.3458,4.3575,4.3578,4.3714,4.3738,4.3832,4.3866,4.3911,4.3947,4.4059,4.4124,4.4139,4.4177,4.4255,4.4327,4.4332,4.4362,4.4403,4.4402,4.4218,4.4192,4.4168,4.414,4.4409,4.4409,4.4593,4.4595,4.4596]},{"header":{"parameterUnit":"m.s-1","parameterCategory":1,"la1":30.2991,"la2":30.254,"lo1":-89.0895,"lo2":-89.0444,"dy":0.0017,"dx":0.0017,"nx":28,"ny":28,"refTime":"2023-08-25T09:00:00:Z","depth":0,"parameterNumber":3,"parameterNumberName":"V-component_of_WINDS"},"data":[0,0,0,0,0,0,0,0,0,0,0,0,0,0,0,0,0,0,0,0,0,0,0,0,0,0,0,0,0,0,0,0,0,0,0,0,0,0,0,0,0,0,0,0,0,0,0,0,0,0,0,0,0,0,0,0,0,0,-1.3356,-1.3356,0,-1.3398,-1.3398,-1.3399,-1.3408,-1.3408,-1.3408,-1.3407,-1.3451,-1.3453,-1.3454,0,0,0,0,0,0,0,0,0,0,0,0,0,-1.3285,-1.3287,-1.3356,-1.3356,-1.3357,-1.3398,-1.3398,-1.3399,-1.3408,-1.3408,-1.3407,-1.3407,-1.3451,-1.3452,-1.3454,0,0,0,0,0,0,0,0,0,0,0,0,0,-1.3321,-1.3287,-1.3356,-1.3367,-1.3368,-1.3398,-1.3398,-1.3399,-1.3408,-1.3408,-1.3407,-1.3407,-1.345,-1.3452,-1.3454,-1.3477,0,0,-1.3461,-1.3462,0,0,0,0,0,0,0,0,-1.3319,-1.3323,-1.3364,-1.3366,-1.3367,-1.3397,-1.339,-1.3425,-1.3408,-1.3393,-1.3407,-1.3407,-1.3434,-1.3437,-1.3446,-1.3479,-1.3481,-1.3461,-1.3463,-1.3463,-1.3464,0,0,0,0,0,0,0,-1.3316,-1.3321,-1.3373,-1.3365,-1.3367,-1.337,-1.3374,-1.3396,-1.3415,-1.3394,-1.3395,-1.34,-1.3434,-1.3444,-1.3447,-1.3481,-1.3461,-1.3463,-1.3464,-1.3465,-1.3536,-1.3536,0,0,0,0,0,0,-1.3312,-1.3319,-1.3371,-1.3374,-1.3341,-1.3371,-1.3376,-1.3388,-1.3415,-1.3419,-1.34,-1.34,-1.344,-1.3445,-1.3449,-1.3477,-1.3463,-1.3465,-1.3467,-1.3535,-1.3536,-1.3536,0,0,0,0,0,0,-1.331,-1.3316,-1.337,-1.3347,-1.3354,-1.3373,-1.3386,-1.3389,-1.3399,-1.342,-1.3423,-1.3406,-1.344,-1.3446,-1.347,-1.3479,-1.3466,-1.3468,-1.3534,-1.3535,-1.3536,-1.3533,0,0,0,0,0,0,-1.3308,-1.3316,-1.3324,-1.3347,-1.3355,-1.3389,-1.3387,-1.339,-1.3402,-1.3403,-1.3426,-1.343,-1.344,-1.3467,-1.3472,-1.3481,-1.347,-1.3534,-1.3535,-1.3536,-1.3533,-1.3534,-1.3535,0,0,0,0,0,-1.3305,-1.3322,-1.3324,-1.333,-1.3366,-1.339,-1.3395,-1.3406,-1.3403,-1.3412,-1.3425,-1.3429,-1.3477,-1.3469,-1.3475,-1.3485,-1.3533,-1.3534,-1.3536,-1.3532,-1.3534,-1.3535,0,0,0,0,0,0,-1.3299,-1.3325,-1.3328,-1.3352,-1.3369,-1.3391,-1.3403,-1.3407,-1.3425,-1.3425,-1.3439,-1.3444,-1.3468,-1.3479,-1.347,-1.3509,-1.3505,-1.3508,-1.35,-1.3502,-1.3503,-1.35,-1.3472,0,0,0,0,0,-1.3301,-1.3318,-1.3339,-1.3359,-1.3367,-1.3383,-1.3394,-1.3402,-1.342,-1.3427,-1.3442,-1.346,-1.3479,-1.3491,-1.351,-1.3535,-1.354,-1.3545,-1.3546,-1.3547,-1.3549,-1.3563,-1.3566,-1.354,-1.354,-1.354,0,0,-1.3304,-1.332,-1.333,-1.3358,-1.3372,-1.3389,-1.3389,-1.3408,-1.3421,-1.343,-1.3453,-1.3465,-1.3486,-1.3511,-1.3523,-1.3521,-1.3557,-1.3549,-1.3549,-1.3551,-1.3565,-1.3567,-1.3569,-1.3541,-1.3541,-1.3541,0,0,-1.3319,-1.3333,-1.335,-1.3364,-1.3385,-1.3396,-1.34,-1.3422,-1.343,-1.3454,-1.3461,-1.3478,-1.351,-1.3525,-1.3536,-1.3557,-1.3562,-1.3563,-1.3569,-1.3583,-1.3585,-1.3587,-1.3594,-1.3597,-1.3565,-1.3565,-1.3565,0,-1.332,-1.3347,-1.3359,-1.3377,-1.3389,-1.3398,-1.3416,-1.3429,-1.3455,-1.3463,-1.3461,-1.3503,-1.3517,-1.3545,-1.3551,-1.356,-1.3565,-1.356,-1.3584,-1.3586,-1.3588,-1.3595,-1.3598,-1.3565,-1.3565,-1.3565,-1.3565,0,-1.3347,-1.3366,-1.3378,-1.3402,-1.3416,-1.3434,-1.3449,-1.3462,-1.3468,-1.348,-1.3504,-1.3522,-1.3545,-1.3552,-1.3559,-1.3582,-1.358,-1.3581,-1.3577,-1.359,-1.3597,-1.36,-1.3565,-1.3565,-1.3565,-1.3565,0,0,-1.3359,-1.339,-1.3394,-1.3405,-1.3429,-1.3444,-1.3463,-1.3485,-1.3495,-1.3513,-1.353,-1.3557,-1.3558,-1.3572,-1.358,-1.3592,-1.3608,-1.3592,-1.3592,-1.3594,-1.3634,-1.3633,-1.3636,-1.3611,-1.3612,-1.3612,-1.3633,0,-1.3376,-1.3409,-1.3421,-1.3449,-1.3466,-1.3475,-1.3492,-1.3508,-1.352,-1.3537,-1.355,-1.3569,-1.3569,-1.3577,-1.3589,-1.3603,-1.3616,-1.3602,-1.3627,-1.3628,-1.3621,-1.364,-1.3639,-1.3657,-1.3636,-1.3636,-1.3636,0,-1.3401,-1.3419,-1.3448,-1.347,-1.3478,-1.3492,-1.3513,-1.3529,-1.3549,-1.3556,-1.3571,-1.3579,-1.36,-1.3596,-1.3625,-1.3615,-1.3626,-1.3635,-1.3636,-1.3638,-1.3632,-1.3643,-1.3664,-1.3666,-1.3641,-1.3641,-1.364,0,-1.3406,-1.3437,-1.3459,-1.3469,-1.3495,-1.3505,-1.3517,-1.3536,-1.3548,-1.3567,-1.3575,-1.3596,-1.3608,-1.3625,-1.3638,-1.3634,-1.3666,-1.3663,-1.3673,-1.3673,-1.3679,-1.3679,-1.3702,-1.3687,-1.3687,-1.3687,-1.3687,0,-1.3424,-1.3442,-1.3462,-1.3475,-1.3495,-1.3509,-1.3529,-1.3541,-1.3558,-1.3574,-1.3583,-1.3599,-1.3616,-1.3634,-1.3644,-1.3667,-1.3672,-1.3679,-1.3682,-1.3678,-1.3677,-1.3685,-1.3684,-1.3687,-1.3687,-1.3687,-1.3687,0,-1.3433,-1.3447,-1.3471,-1.3494,-1.35,-1.3514,-1.3534,-1.3548,-1.356,-1.358,-1.3586,-1.3605,-1.3627,-1.3642,-1.367,-1.3677,-1.3701,-1.3704,-1.3694,-1.3696,-1.3705,-1.3704,-1.3734,-1.3739,-1.3721,-1.3721,-1.3721,0,-1.3443,-1.3457,-1.3481,-1.3493,-1.3504,-1.3522,-1.3535,-1.3549,-1.3562,-1.3586,-1.3597,-1.3619,-1.3637,-1.3671,-1.3687,-1.3709,-1.3712,-1.3721,-1.3715,-1.3711,-1.3712,-1.3711,-1.3713,-1.3722,-1.3722,-1.3722,-1.3722,0,-1.346,-1.3467,-1.3484,-1.3505,-1.3519,-1.3536,-1.3553,-1.3562,-1.358,-1.3594,-1.3616,-1.363,-1.3658,-1.368,-1.3703,-1.3716,-1.3722,-1.3724,-1.3727,-1.3724,-1.3717,-1.3721,-1.3696,-1.3723,-1.3723,-1.3723,-1.3723,-1.3723,-1.347,-1.3483,-1.3502,-1.3521,-1.3536,-1.3551,-1.3565,-1.3579,-1.3597,-1.3621,-1.3628,-1.3651,-1.3671,-1.3703,-1.3716,-1.3734,-1.3734,-1.3739,-1.374,-1.3741,-1.3741,-1.3715,-1.3738,-1.3738,-1.3738,-1.3738,-1.3738,0,-1.3487,-1.35,-1.3518,-1.3541,-1.3557,-1.3561,-1.358,-1.3593,-1.3613,-1.3631,-1.3648,-1.3674,-1.3695,-1.3714,-1.3736,-1.3747,-1.3751,-1.3753,-1.3752,-1.3755,-1.374,-1.3735,-1.3749,-1.3749,-1.3749,-1.3749,-1.3749,-1.3749,-1.3498,-1.352,-1.3529,-1.3558,-1.3571,-1.3592,-1.3603,-1.3618,-1.3632,-1.366,-1.3677,-1.3689,-1.3707,-1.3731,-1.3751,-1.3756,-1.3764,-1.3765,-1.3771,-1.3757,-1.3756,-1.3754,-1.3749,-1.3767,-1.3767,-1.3784,-1.3784,-1.3785]}]]